Dewpoint
72 70 70 71 71 71 68 66 59 61 60 57 57 55 56 55 58 62 59 62 57 55 54 54 55 55 63 57 57 58 60 56 59 60 56 66 69 70 69 70 71 72 72 72 73 75 76 77 76 76 76 77 77 78 78 77 78 77 77 77 77 77 77 77 76 76 76 76 76 76 76 76 76 76 76 76 75 75 75 75 74 74 75 75 75 74 75 75 75 75 74 74 74 73 73 74 74
69 70 70 71 70 70 66 66 60 60 56 56 57 52 55 59 57 56 56 61 58 54 54 54 54 53 53 54 55 56 57 59 63 62 64 67 69 69 69 70 70 69 69 72 73 74 75 76 76 77 77 77 77 78 78 78 78 78 77 77 77 77 77 77 76 76 76 76 76 76 76 76 75 75 75 75 75 74 74 74 74 75 75 75 74 74 74 75 75 75 75 75 74 74 73 73 74
69 69 70 69 71 69 67 66 57 58 55 51 49 53 57 51 57 60 60 57 55 54 55 54 56 57 56 55 53 55 58 61 62 62 64 68 68 69 69 70 69 70 72 72 73 74 74 76 76 76 77 77 77 77 78 78 78 78 78 78 78 77 77 77 76 76 76 76 76 76 75 75 75 75 75 75 75 75 75 74 74 75 75 74 74 74 74 74 74 75 74 75 74 74 74 74 74
69 70 69 70 68 69 64 62 57 56 50 48 48 49 50 51 54 56 55 55 55 54 54 55 54 59 55 53 55 58 59 61 61 63 65 65 68 69 69 69 71 70 70 72 73 72 74 75 76 76 77 77 77 77 78 78 78 77 77 78 77 77 77 77 77 76 76 76 76 76 76 76 75 76 75 76 76 76 75 75 75 75 74 75 74 74 74 75 75 75 75 75 74 74 74 74 74
69 70 70 69 68 63 62 59 60 56 47 46 46 48 49 50 54 55 55 55 55 54 55 56 57 58 57 58 55 57 60 61 61 63 65 67 68 69 69 69 70 70 70 72 73 72 74 75 74 75 76 77 77 77 77 77 78 77 77 77 77 77 77 77 77 77 76 76 76 76 76 75 75 75 75 74 74 74 73 73 74 74 74 75 75 75 74 75 75 75 75 75 75 75 74 73 74
70 69 72 70 66 68 65 59 55 56 48 49 45 47 49 50 53 54 55 56 56 55 55 55 55 56 57 57 56 61 61 59 62 63 64 66 66 68 70 70 68 71 71 71 72 73 75 76 75 75 77 77 78 78 78 78 77 77 77 77 77 77 77 77 77 77 76 76 76 76 76 75 75 75 75 74 74 74 74 74 74 74 73 74 74 75 74 75 75 75 74 75 74 74 73 73 74
68 67 69 68 68 67 59 56 55 44 46 53 47 48 50 51 53 54 55 55 56 55 56 55 58 56 57 58 60 61 61 61 61 65 65 66 67 67 68 68 67 70 70 73 72 74 76 76 75 76 77 78 78 78 77 77 77 77 77 77 77 77 77 77 77 77 77 76 76 76 76 75 75 75 74 74 74 74 74 74 74 74 74 73 73 74 74 74 74 74 74 74 74 75 74 74 74
69 66 69 64 60 62 57 58 51 48 46 48 49 50 52 52 53 54 54 54 54 54 55 57 57 59 60 60 59 60 60 62 64 66 66 66 67 67 66 65 66 67 68 73 73 72 76 77 76 76 77 78 78 78 77 77 77 77 77 77 77 77 77 77 77 77 76 76 76 76 75 75 75 74 74 74 74 74 75 75 75 75 75 74 74 73 74 74 74 74 74 74 74 75 74 74 74
67 64 66 64 60 57 58 53 41 45 46 47 49 53 57 53 52 53 53 53 55 55 55 57 56 57 61 58 59 60 63 64 64 67 66 66 66 66 66 65 65 67 68 70 71 73 75 77 76 77 77 78 78 78 77 77 77 78 77 77 77 77 77 77 77 77 77 77 76 75 75 75 75 74 74 74 74 74 74 75 75 75 74 74 74 74 74 74 74 74 74 73 74 74 74 74 74
69 66 62 61 60 56 56 42 44 44 46 48 49 51 52 53 52 50 50 53 54 55 55 59 58 62 61 58 59 61 62 64 65 65 66 65 66 65 65 65 66 67 67 70 71 71 74 77 76 77 77 78 77 77 77 77 77 78 78 78 77 77 77 77 77 77 77 77 76 75 75 75 75 74 74 74 74 74 74 74 74 74 74 74 74 75 75 75 75 74 74 74 74 74 74 73 74
63 65 62 58 54 54 42 40 42 43 45 48 49 51 52 52 52 51 52 51 54 54 59 59 56 60 59 61 61 62 64 64 63 63 65 65 66 65 64 68 67 67 67 71 69 72 74 75 77 77 78 78 77 77 77 77 77 78 78 78 77 77 77 77 77 77 77 76 76 75 75 75 75 74 74 75 75 74 74 74 74 74 74 75 74 74 74 75 74 74 73 74 74 74 74 74 74
61 60 61 57 54 56 47 40 41 42 45 47 48 50 51 51 51 49 49 51 54 54 55 62 61 60 61 60 60 62 63 63 62 64 64 65 64 64 65 66 68 67 67 67 70 72 73 75 76 77 77 77 77 77 77 77 78 78 78 78 78 78 77 77 77 77 76 76 76 75 75 75 75 74 74 74 74 74 74 75 74 74 74 75 75 74 74 74 74 74 74 74 74 75 75 74 75
61 61 59 58 52 52 38 41 40 42 44 45 47 50 51 52 50 50 50 50 52 53 53 64 59 59 60 60 61 62 62 63 63 64 65 64 64 64 65 68 67 68 66 70 69 70 72 73 73 75 76 77 77 78 78 77 78 78 78 78 78 78 77 77 77 77 76 76 76 75 75 75 75 75 74 74 74 74 74 74 74 74 75 75 75 75 74 74 74 74 74 74 74 75 75 75 75
59 58 57 54 53 49 43 39 39 40 42 45 47 50 51 50 51 51 50 50 52 53 55 58 60 61 61 61 61 61 62 63 63 63 64 64 64 64 64 66 69 70 66 68 69 69 71 72 71 72 75 75 76 77 77 78 78 78 78 77 77 77 77 77 77 77 76 76 76 76 75 75 74 74 74 75 75 75 75 75 75 74 74 74 75 75 74 74 74 74 74 74 74 74 74 74 75
58 57 55 54 56 46 41 39 38 39 39 45 46 48 50 51 51 51 51 51 53 55 57 58 60 59 59 59 60 60 62 63 63 63 64 64 64 64 64 64 65 66 66 66 66 67 67 69 69 73 74 72 74 74 75 77 78 78 78 77 77 77 77 77 77 76 76 76 76 75 75 75 74 74 74 74 74 75 76 76 75 74 75 74 75 75 75 74 74 75 75 75 75 75 75 74 74
56 57 56 57 49 48 49 40 38 39 41 44 46 47 48 49 50 50 52 52 51 53 55 55 58 56 57 58 60 60 62 63 64 63 63 64 66 66 65 64 64 65 67 68 67 67 67 68 70 70 71 72 72 71 73 75 78 78 78 77 77 77 77 77 77 76 76 76 76 76 75 75 74 73 74 74 75 75 75 76 75 74 74 74 74 75 75 74 74 75 75 75 75 75 75 75 75
56 58 54 52 50 50 50 38 37 41 40 45 46 47 45 47 50 49 51 52 50 51 54 54 56 56 56 58 60 61 62 63 64 64 64 65 65 65 65 66 66 66 66 68 69 68 66 67 70 69 71 71 69 70 71 74 76 77 77 77 77 77 77 77 76 76 76 75 75 75 75 74 75 73 75 73 75 76 76 76 75 74 74 74 74 74 74 74 74 74 74 75 75 75 75 75 75
59 54 49 54 59 57 47 44 42 42 42 43 45 47 47 46 48 49 51 51 50 53 52 54 55 58 59 59 60 61 61 62 63 63 63 65 65 64 64 65 68 67 67 67 69 69 68 69 69 70 70 71 69 69 71 73 76 75 75 77 77 77 77 77 77 75 74 75 75 75 74 76 74 76 76 74 75 74 75 76 75 74 75 75 75 74 74 74 74 74 74 75 75 75 74 75 75
55 51 49 48 52 53 53 45 46 44 42 44 45 46 47 46 48 48 49 49 49 51 52 54 56 58 59 59 60 61 61 62 62 63 63 64 64 64 65 67 66 68 67 68 69 69 70 71 70 68 69 70 69 70 69 72 74 74 74 74 74 75 75 75 74 74 74 76 74 75 76 75 74 76 76 75 74 73 74 75 76 75 75 75 75 76 75 74 75 75 75 75 75 73 75 75 74
53 49 49 47 54 58 49 46 46 44 44 44 46 46 47 47 48 48 49 48 49 50 50 53 56 57 58 59 59 61 62 61 63 64 64 64 64 63 67 66 67 67 68 68 69 69 70 71 72 70 70 69 69 69 68 72 72 72 71 73 72 73 73 73 74 75 75 77 75 76 76 75 72 78 74 74 73 73 74 75 76 75 75 76 74 75 76 75 75 75 74 73 74 74 74 75 71
50 48 46 56 60 53 45 47 47 46 47 45 47 47 46 47 49 47 49 49 50 50 50 52 55 57 59 59 60 61 62 61 61 63 64 64 65 63 64 66 66 67 68 69 70 70 71 71 72 73 73 71 70 70 69 70 71 69 69 71 71 70 72 72 73 75 75 77 76 75 74 72 70 74 72 71 76 76 74 76 75 76 76 75 76 74 72 74 75 74 74 74 72 75 71 71 71
48 49 47 47 54 51 47 49 48 47 47 47 43 45 46 48 50 47 49 49 48 48 51 52 55 58 59 59 60 61 61 62 61 61 63 63 64 64 64 65 66 66 67 69 69 70 71 71 72 72 74 73 73 72 71 72 71 69 70 69 71 71 72 72 72 74 74 76 75 72 72 71 71 71 72 75 75 75 75 77 75 75 76 75 75 77 75 76 75 77 76 73 73 70 70 71 70
46 49 47 47 49 57 49 49 49 47 49 47 45 46 47 47 47 48 49 47 46 48 50 53 56 58 59 60 61 61 61 61 61 61 62 62 64 63 63 64 66 65 67 68 70 71 71 71 72 72 72 73 74 72 72 72 72 70 70 69 71 70 70 72 72 72 74 74 74 73 70 70 69 68 71 73 74 72 75 75 76 76 75 75 77 75 73 76 75 73 73 74 69 68 68 72 72
47 44 47 43 49 51 54 52 51 49 48 47 47 46 43 46 45 47 48 48 47 47 50 52 56 58 59 59 60 61 61 61 61 61 61 61 63 63 63 63 65 66 68 68 69 70 71 70 71 72 73 73 74 73 72 70 71 70 70 71 71 70 70 71 69 70 73 74 75 73 71 70 67 68 71 72 71 72 75 75 75 76 76 75 75 73 75 75 76 73 72 71 71 70 67 70 69
47 43 45 47 48 48 49 50 49 49 48 46 46 44 43 44 44 46 46 47 48 50 50 53 57 59 58 60 60 61 62 61 61 61 61 61 63 63 63 64 65 66 67 68 69 69 70 70 71 71 72 73 72 72 71 70 70 71 70 70 69 71 72 71 69 72 72 73 73 75 73 70 69 69 71 71 71 74 75 75 77 76 75 77 75 75 72 72 74 72 73 72 73 70 69 70 69
44 45 42 42 45 47 47 48 48 47 46 47 45 43 42 42 44 43 46 47 49 51 51 53 56 58 58 59 60 61 62 61 61 61 61 62 62 63 63 63 64 65 66 67 68 69 69 72 70 70 71 72 72 70 72 71 70 70 72 72 72 72 71 71 72 71 72 72 72 75 71 71 69 68 70 71 70 72 77 73 74 74 75 74 74 73 73 75 75 77 73 72 69 70 70 70 71
45 44 43 42 43 43 45 46 47 46 46 46 44 43 42 41 41 40 43 46 48 49 51 55 56 56 58 58 59 61 61 60 61 61 61 62 62 62 62 63 64 66 67 67 67 69 69 68 69 71 71 73 72 69 71 71 72 71 72 72 72 72 72 73 72 71 70 71 72 75 75 74 72 70 70 71 71 71 73 74 74 75 72 74 73 73 73 71 71 70 72 71 71 71 71 70 73
45 48 45 41 40 42 44 45 46 46 45 46 45 44 43 41 40 40 41 45 47 48 53 56 56 58 58 58 59 62 62 62 62 61 60 61 62 62 63 64 64 65 67 67 68 69 68 68 68 70 71 72 73 69 71 71 72 71 72 73 72 72 73 72 71 72 72 71 72 75 75 73 73 72 74 73 72 72 72 72 75 74 75 70 72 73 72 72 72 73 74 73 73 72 71 70 70
43 43 43 44 43 41 41 42 45 46 44 43 43 42 41 40 38 40 42 44 47 50 54 56 56 56 58 59 59 62 62 62 61 61 60 61 61 61 61 63 64 65 67 67 68 69 67 68 68 70 70 73 72 70 69 71 71 71 72 72 73 73 73 72 71 71 73 73 75 75 75 75 75 74 75 74 73 72 71 73 75 75 74 72 72 74 73 73 73 73 75 73 73 71 70 70 71
43 41 41 41 39 37 38 40 41 42 41 40 40 36 36 38 39 39 45 45 48 50 54 54 55 56 57 59 59 62 62 62 61 61 61 61 62 61 61 62 63 63 65 67 68 68 67 67 67 68 69 71 72 70 71 70 71 71 71 72 73 72 72 71 71 71 72 72 75 75 75 75 74 74 76 75 73 72 73 73 75 75 76 74 77 75 74 74 73 72 71 70 70 71 69 70 69
38 40 41 37 34 32 34 35 37 38 39 39 38 37 33 34 37 40 43 47 46 48 50 51 53 55 56 58 59 61 61 63 62 62 60 61 61 61 61 62 62 62 64 65 67 69 68 68 67 67 70 71 71 70 70 71 71 70 70 72 71 72 72 71 69 71 70 72 72 73 75 75 75 75 75 76 74 73 72 73 71 72 75 75 77 76 74 74 72 73 73 74 72 70 70 71 70
38 37 35 33 31 30 31 34 35 35 36 37 36 37 35 34 37 42 43 46 45 46 49 50 52 54 56 58 58 60 61 62 62 62 60 61 61 61 61 62 61 62 64 65 66 67 67 68 69 68 69 70 72 71 71 72 71 71 70 71 71 72 70 71 69 69 69 69 70 73 75 75 75 76 76 75 75 73 72 72 76 76 76 73 76 75 76 74 73 72 73 72 71 70 70 70 70
31 33 32 30 29 29 29 32 34 35 33 35 35 35 35 34 40 41 42 44 44 46 47 51 52 53 54 58 59 61 61 62 62 62 61 62 62 62 62 62 62 63 63 64 65 66 67 67 69 68 68 70 72 71 72 72 72 72 72 71 70 72 70 70 69 69 69 69 69 68 74 75 76 75 76 76 74 73 72 72 78 76 77 75 77 77 75 76 74 72 75 74 72 73 69 67 68
26 28 27 27 27 28 28 31 32 32 33 33 34 34 36 35 38 40 42 43 45 45 46 50 52 54 57 59 59 60 61 62 62 63 61 62 62 63 62 65 64 64 65 65 65 66 66 66 67 68 69 68 70 72 73 72 73 73 72 71 72 72 70 68 69 70 70 67 69 68 74 75 75 75 76 75 75 73 72 73 72 75 75 75 76 75 75 72 73 72 74 74 72 72 69 68 66
21 24 24 24 27 27 27 27 31 32 33 30 33 34 36 35 36 40 43 42 44 45 45 48 51 54 59 58 59 59 60 61 62 63 62 62 63 64 64 65 64 65 65 66 66 67 67 67 68 69 68 69 69 70 72 72 72 73 72 72 71 72 72 69 68 67 67 68 67 71 75 75 75 76 75 76 76 73 72 73 74 77 74 75 76 73 75 73 73 73 72 74 73 73 70 67 65
18 21 23 25 25 26 28 28 30 32 30 31 31 33 33 35 36 38 41 41 42 44 46 48 50 53 60 59 58 59 60 62 63 63 63 63 64 64 64 65 65 65 66 67 68 68 69 69 69 69 69 68 69 70 70 69 69 70 70 70 70 71 71 70 70 67 68 67 69 71 74 75 75 75 75 75 75 74 72 72 74 76 75 75 76 74 72 74 75 74 74 72 75 73 71 68 63
17 19 23 24 24 25 25 26 29 29 29 30 31 31 31 34 35 35 38 40 41 42 44 47 51 52 56 58 57 58 60 61 63 63 63 63 63 65 66 66 66 66 67 68 68 69 69 68 70 70 70 70 69 69 69 68 68 69 70 69 68 68 70 70 69 69 68 66 69 71 74 73 74 75 75 75 75 75 74 74 75 76 75 75 76 75 74 74 75 75 74 73 73 71 70 65 60
16 16 18 19 22 23 27 29 29 30 29 32 31 29 31 32 34 34 36 39 39 40 43 46 49 51 57 59 58 58 61 61 62 60 62 64 64 65 66 66 68 67 68 68 69 69 70 69 70 70 70 70 70 69 69 69 69 69 69 68 67 66 68 69 70 70 69 68 71 72 73 74 74 75 75 75 75 76 76 76 76 77 76 76 77 77 76 76 75 74 72 74 73 70 68 63 61
18 17 16 15 18 22 24 27 30 29 28 29 29 30 30 31 30 31 34 38 42 41 41 44 49 51 53 57 57 58 60 61 61 63 62 63 64 65 66 67 67 67 67 69 70 70 71 70 71 72 71 70 70 70 70 70 70 70 69 68 67 66 68 69 68 69 70 68 69 72 74 74 74 75 75 75 75 78 77 76 77 77 76 76 76 76 76 76 76 75 73 72 71 70 69 65 64
20 18 16 15 15 17 21 20 26 28 29 29 32 28 30 32 33 33 32 32 38 39 39 40 43 47 48 54 56 58 59 61 61 62 62 63 64 66 67 67 68 67 69 69 69 70 70 71 72 72 72 71 72 72 71 71 71 71 72 71 70 68 68 70 71 70 70 68 67 71 74 75 74 74 74 74 75 77 77 78 76 79 78 77 77 77 77 76 76 75 72 71 72 69 66 63 62
20 19 14 14 15 15 19 21 25 26 28 29 29 29 30 31 29 30 33 32 31 34 38 41 43 44 45 53 53 57 56 61 61 62 60 62 64 66 67 68 68 67 68 69 69 69 69 70 72 73 72 72 72 73 72 73 72 72 72 72 72 71 69 70 70 68 69 70 67 71 73 75 75 73 73 74 74 77 78 78 76 76 76 76 75 77 77 74 75 75 73 72 72 68 64 63 62
17 16 14 13 14 15 17 19 20 22 23 26 27 30 31 33 31 28 31 32 33 34 40 42 44 42 46 49 54 55 54 58 63 59 60 63 64 66 68 68 68 68 68 68 69 69 71 71 72 73 73 73 72 73 74 73 73 72 72 71 70 69 69 68 69 68 67 68 67 67 73 73 73 73 72 74 75 76 79 78 77 76 76 76 77 75 74 74 75 74 73 72 71 70 68 64 62
15 13 12 13 12 9 11 15 18 21 24 25 26 27 28 31 30 31 32 32 33 34 37 40 43 45 44 49 51 54 54 57 61 61 62 62 64 66 67 68 68 67 68 69 70 70 72 72 73 73 73 73 73 73 74 74 74 73 73 72 71 70 70 69 72 70 69 68 69 68 70 73 74 72 71 73 74 76 79 78 78 77 75 76 77 77 76 73 72 74 73 71 70 71 70 66 65
13 10 10 11 8 7 7 10 13 19 20 19 24 26 28 29 29 32 30 31 33 34 35 40 38 45 42 49 50 55 55 54 57 58 60 63 64 65 67 68 68 66 68 69 69 70 72 73 73 73 73 73 74 74 74 74 74 73 73 73 71 71 70 70 72 73 71 70 69 68 67 71 74 74 71 73 74 75 77 79 79 77 75 75 76 76 76 74 75 74 74 73 72 73 71 68 64
11 7 5 5 4 4 4 7 9 11 14 20 20 21 24 27 30 32 31 31 33 34 35 40 42 43 46 48 50 54 55 56 59 58 61 63 64 65 67 68 68 67 68 69 70 70 72 73 74 74 74 75 74 75 74 74 74 74 74 73 72 71 71 70 71 72 71 71 70 70 70 69 74 75 73 72 74 75 75 77 79 78 76 76 76 76 75 74 75 75 74 73 73 74 72 70 69
14 10 7 7 7 5 2 4 8 13 19 21 23 19 22 24 27 30 32 31 31 32 37 41 44 44 48 47 52 53 57 56 55 56 61 63 64 64 66 68 69 66 67 69 70 70 71 73 74 74 74 74 75 75 75 75 74 74 74 74 73 72 71 71 70 71 72 72 71 72 72 72 71 74 74 73 75 75 75 76 76 78 77 74 75 75 75 75 75 75 74 74 74 73 73 70 68
14 11 9 10 15 18 17 9 12 15 17 21 17 16 16 19 27 28 30 30 32 34 39 41 46 45 49 51 50 51 55 59 55 57 63 64 64 65 66 67 69 68 68 68 68 70 71 73 74 74 75 74 75 75 75 75 75 74 74 74 74 72 71 71 71 71 73 73 73 72 73 73 72 72 72 73 73 74 75 75 74 75 76 76 76 75 75 74 73 73 73 74 74 73 72 71 69
13 11 12 18 21 20 22 19 20 16 14 20 13 12 14 18 23 27 30 31 30 34 36 40 42 43 46 50 49 50 55 59 60 61 63 64 66 66 66 68 68 68 67 68 68 69 71 73 74 75 75 75 75 75 75 75 74 75 75 75 74 73 72 70 71 71 73 73 73 73 73 73 73 72 74 71 72 70 74 75 75 74 75 76 75 75 75 74 73 73 73 74 74 74 74 72 70
13 13 16 15 19 18 15 18 14 12 13 15 9 9 12 17 25 25 26 27 29 31 32 37 37 40 44 48 49 49 52 57 59 62 63 64 64 65 66 68 70 69 68 69 68 68 71 73 74 75 75 76 75 75 75 75 75 74 74 74 75 74 73 72 72 71 73 74 74 74 74 73 74 73 72 71 70 72 73 75 75 73 74 76 76 76 75 75 75 73 73 73 73 74 73 72 70
14 15 17 18 18 17 17 15 18 15 12 8 9 11 12 16 18 22 20 26 27 28 33 34 37 37 40 48 49 44 48 55 59 60 62 64 65 65 66 67 69 68 67 67 68 69 71 72 75 75 76 76 76 76 76 76 75 75 75 74 74 74 74 73 72 71 72 74 75 75 73 72 73 73 72 73 70 71 72 73 75 75 75 76 77 77 76 76 76 74 74 74 73 74 73 72 71
17 15 14 19 21 17 18 16 14 12 15 11 8 12 18 11 17 18 20 23 27 26 27 36 36 34 39 46 50 46 46 52 59 61 60 63 65 66 66 66 68 68 67 67 67 69 72 72 74 76 76 76 76 76 76 76 75 75 75 75 75 74 73 73 72 72 72 73 73 74 74 71 71 72 72 73 74 72 72 73 75 75 75 76 76 77 76 76 76 76 75 75 74 73 73 71 70
17 17 16 19 18 20 16 17 14 16 13 13 16 13 17 19 25 25 22 18 21 24 27 31 35 33 39 48 44 43 43 46 53 59 61 63 65 67 66 67 68 69 69 67 68 70 70 72 74 75 76 76 76 76 76 76 75 75 76 76 75 75 75 73 73 73 73 72 74 74 75 74 72 72 74 74 73 73 73 73 74 75 76 75 76 77 77 75 76 75 75 75 74 72 72 72 71
18 17 16 16 17 14 21 26 18 18 18 18 20 18 16 18 17 19 25 21 20 22 24 26 32 33 38 44 48 44 41 45 51 56 60 63 64 67 66 67 67 68 68 67 70 70 72 72 74 75 76 76 76 76 76 76 76 75 75 75 75 75 74 73 72 73 71 72 74 74 73 74 73 72 72 73 74 75 74 74 74 74 76 75 75 76 76 75 76 75 74 75 75 72 73 72 69
19 16 14 16 16 15 21 18 25 21 18 20 12 14 18 17 17 24 23 22 20 22 22 22 33 35 33 35 47 46 41 45 49 54 62 63 64 66 66 66 67 68 68 69 71 70 71 72 73 75 76 76 76 76 75 75 75 75 76 76 76 75 74 73 72 73 73 73 73 74 74 73 73 71 71 72 74 74 75 76 75 75 75 75 74 74 76 76 76 75 74 75 74 75 73 72 71
16 15 14 12 16 17 21 22 19 19 18 17 16 14 15 20 24 19 20 21 19 23 27 24 25 28 31 31 37 42 40 42 44 50 58 62 62 64 67 65 66 68 70 70 69 69 70 71 72 73 74 74 74 73 74 75 75 74 74 75 75 75 74 74 74 74 75 74 72 72 73 73 73 74 73 74 74 74 75 75 76 75 75 75 75 74 76 76 76 75 74 73 74 75 73 72 72
15 17 14 13 15 16 19 21 24 24 19 19 15 14 14 20 20 19 22 23 25 21 24 24 23 24 25 30 30 36 43 43 43 47 54 61 62 62 64 64 64 66 68 68 68 68 68 70 71 72 72 74 75 74 75 74 74 74 73 75 76 76 76 75 75 75 74 73 73 72 73 71 72 73 73 73 73 74 75 75 74 74 73 73 74 74 74 76 76 76 74 72 72 74 73 72 71
12 14 15 13 12 14 15 16 16 18 21 20 20 12 16 17 8 10 23 26 26 23 25 29 25 26 26 30 31 38 44 43 42 44 50 58 61 61 63 64 64 65 67 67 67 68 68 68 69 70 72 72 72 72 73 75 74 74 74 75 74 75 75 75 75 75 74 74 75 74 73 73 73 73 73 73 74 75 75 76 75 75 73 74 75 75 75 76 76 76 75 74 73 74 74 72 72
11 12 14 12 12 14 15 17 14 12 16 20 16 18 24 14 13 18 17 23 23 23 25 26 26 22 32 33 36 41 44 48 49 47 50 56 61 61 61 64 64 64 65 67 67 67 67 67 68 68 69 70 70 71 73 75 74 73 73 74 74 74 75 74 74 74 74 75 75 74 74 74 72 73 74 73 75 74 75 75 75 76 75 73 75 76 73 74 75 75 75 74 73 73 74 74 72